Regional Weather Roundup
Issued by NWS

Home | Current Version | Previous Version | Graphics & Text | Print | Product List | Glossary On
Versions: 1 2 3 4 5 6 7 8 9 10 11 12 13 14 15 16 17 18 19 20 21 22 23 24 25 26 27 28 29 30 31 32 33 34 35 36 37 38 39 40 41 42 43 44 45 46 47 48 49 50
126
ASUS43 KMKX 070059
RWRWI

WISCONSIN REGIONAL WEATHER ROUNDUP
NATIONAL WEATHER SERVICE MILWAUKEE/SULLIVAN WI
700 PM CST SAT FEB 06 2016

NOTE: "FAIR" INDICATES FEW OR NO CLOUDS BELOW 12,000 FEET WITH NO
SIGNIFICANT WEATHER AND/OR OBSTRUCTIONS TO VISIBILITY.

WIZ001-002-006>008-014>016-023>028-070200-
NORTHWEST WISCONSIN

CITY           SKY/WX    TMP DP  RH WIND       PRES   REMARKS
SUPERIOR ARPT  CLOUDY    35  27  72 SW12G17   29.77S WCI  26
ASHLAND        CLOUDY    34  24  67 S10       29.81F WCI  26
HAYWARD        CLOUDY    32  23  69 S15       29.82F WCI  22
SIREN          CLOUDY    33  26  75 S10       29.80F WCI  25
CUMBERLAND     CLOUDY    32  25  74 S14       29.84F WCI  22
RICE LAKE      CLOUDY    31  25  77 S14       29.88F WCI  21
CHETEK         CLOUDY    31  25  78 S9G17     29.88F WCI  23
LADYSMITH      CLOUDY    32  25  74 S10       29.90F WCI  24
EAU CLAIRE     NOT AVBL
MENOMONIE      CLOUDY    32  26  77 S10G18    29.91F WCI  24
NEW RICHMOND   CLOUDY    32  26  78 S15       29.84F WCI  21
OSCEOLA        CLOUDY    33  28  80 S12       29.85F WCI  24
$$

WIZ003>005-009-010-017-018-070200-
NORTH CENTRAL WISCONSIN

CITY           SKY/WX    TMP DP  RH WIND       PRES   REMARKS
MANITOWISH WTR CLOUDY    31  21  68 S10       29.84F WCI  22
ARBOR VITAE    CLOUDY    32  23  70 S13G20    29.87F WCI  22
WOODRUFF       CLOUDY    32  23  70 S13G20    29.87F WCI  22
RHINELANDER    CLOUDY    30  21  69 S10       29.89F WCI  21
EAGLE RIVER    CLOUDY    29  20  67 S5        29.88F WCI  24
LAND O LAKES   CLOUDY    30  22  70 S7        29.87S WCI  23
PHILLIPS       CLOUDY    31  22  68 S12       29.87F WCI  22
TOMAHAWK       CLOUDY    30  21  69 S3        29.91F
MEDFORD        CLOUDY    29  23  77 S12       29.91F WCI  20
MERRILL        MOCLDY    31  23  73 S7        29.95F WCI  24
$$

WIZ029-030-035-036-043>047-070200-
CENTRAL WISCONSIN

CITY           SKY/WX    TMP DP  RH WIND       PRES   REMARKS
WAUSAU         CLOUDY    32  22  66 S14       29.93F WCI  22
MOSINEE        PTCLDY    28  25  86 S10       29.96F WCI  19
MARSHFIELD     MOCLDY    31  21  66 S14       29.93F WCI  21
STEVENS POINT  CLOUDY    29  23  77 S10       29.99F WCI  20
WAUPACA        CLOUDY    32  26  77 S7        30.02F WCI  26
WAUTOMA        NOT AVBL
WISC RAPIDS    MOCLDY    31  22  69 S8        30.00F WCI  23
CAMP DOUGLAS   NOT AVBL
$$

WIZ011>013-019>022-031-037>040-048>050-070200-
NORTHEAST WISCONSIN

CITY           SKY/WX    TMP DP  RH WIND       PRES   REMARKS
ANTIGO         CLOUDY    28  24  83 S12       29.95S WCI  18
SHAWANO        CLOUDY    32  25  76 CALM      30.01F
OCONTO         CLOUDY    29  26  86 S5        30.02F WCI  24
STURGEON BAY   CLOUDY    28  21  74 S9        30.04F WCI  20
GREEN BAY      CLOUDY    30  24  78 S13       30.03F WCI  20
MANITOWOC      NOT AVBL
APPLETON       CLOUDY    28  23  80 S10       30.01F WCI  19
CLINTONVILLE   CLOUDY    30  25  80 S6        30.01F WCI  24
OSHKOSH        CLOUDY    29  23  78 S10       30.04F WCI  20
$$

WIZ032>034-041-042-053>061-070200-
SOUTHWEST WISCONSIN

CITY           SKY/WX    TMP DP  RH WIND       PRES   REMARKS
LA CROSSE      CLOUDY    30  24  78 S14       30.00F WCI  19
SPARTA         CLOUDY    31  25  78 S7        30.01F WCI  24
VIROQUA        CLOUDY    28  25  90 S6        30.01F WCI  21
BOSCOBEL       CLOUDY    31  28  89 SW7       30.07F WCI  24
PRAIRIE DU CHI MOCLDY    31  26  79 S6        30.07F WCI  26
PLATTEVILLE    CLOUDY    28  27  93 S7        30.08F WCI  21
$$

WIZ056-057-062-063-064-067-068-070200-
SOUTH CENTRAL WISCONSIN

CITY           SKY/WX    TMP DP  RH WIND       PRES   REMARKS
REEDSBURG      MOCLDY    30  26  85 S10G16    30.04F WCI  21
BARABOO/DELLS  CLOUDY    29  25  83 S12       30.04F WCI  20
LONE ROCK      CLOUDY    30  25  81 S7        30.08F WCI  23
MINERAL POINT  CLOUDY    32  28  86 S13       30.07F WCI  22
MADISON        CLOUDY    29  24  82 SW8       30.08F WCI  21
MIDDLETON      CLOUDY    31  26  84 SW7       30.08F WCI  24
WATERTOWN      CLEAR     27  27 100 S5        30.09F WCI  21
MONROE         CLOUDY    30  28  93 SW12      30.10S WCI  21
JANESVILLE     CLEAR     30  28  93 SW3       30.11S
$$

WIZ051-052-058>065-066-070>072-070200-
SOUTHEAST WISCONSIN

CITY           SKY/WX    TMP DP  RH WIND       PRES   REMARKS
MILWAUKEE      PTCLDY    31  25  78 SW3       30.10F
WAUKESHA       CLEAR     27  25  93 CALM      30.10F
MILWAUKEE/TIMM CLEAR     30  25  80 SW6       30.10F WCI  24
RACINE         CLEAR     31  25  78 SW5       30.12F WCI  26
BURLINGTON     CLEAR     27  25  92 CALM      30.11F
KENOSHA        CLEAR     30  24  78 S5        30.11F WCI  25
FOND DU LAC    CLOUDY    30  25  81 S12       30.05F WCI  20
SHEBOYGAN        N/A     29  24  82 S12       30.06F WCI  19
WEST BEND      PTCLDY    30  25  80 SW5       30.08S WCI  25
JUNEAU         CLOUDY    28  25  87 S9        30.09S WCI  19
$$

LSZ147-162-070200-
LAKE SUPERIOR

STATION/POSITION TIME  TEMP    WIND        PRES    WAVE
                       AIR SEA DIR/SP/G            HT/PER
                 (UTC) (F)     (DEG/KT/KT) (MB)    (FT/S)
DEVILS ISLAND    0000   34     210/  4/  5 1010.5F
PORT WING        0000          180/ 13/ 20   N/A
SAXON HARBOR     0000   37                 1010.2R
$$

LMZ867-665-643>646-070200-
LAKE MICHIGAN

STATION/POSITION TIME  TEMP    WIND        PRES    WAVE
                       AIR SEA DIR/SP/G            HT/PER
                 (UTC) (F)     (DEG/KT/KT) (MB)    (FT/S)
CHAMBERS ISLAND  0000   28     180/  7/ 13 1016.9F
ALGOMA LAKESHORE 0041          220/  9/ 10   N/A
KEWAUNEE LAKESHO 0000   30     200/  5/  7 1017.1F
SHEBOYGAN LAKESH 0000   32     210/  9/ 10 1019.7F
PORT WASHINGTON  0000   32     210/  3/  6 1020.3
MILWAUKEE LAKESH 0010   33     240/  6/  7   N/A
KENOSHA   LAKESH 0000   37     200/  4/  5 1020.0F
$$

TC  - TEMPERATURE IN CELSIUS
VSB - VISIBILITY IN STATUTE MILES
WCI - WIND CHILL INDEX
HX  - HEAT INDEX





USA.gov is the U.S. government's official web portal to all federal, state and local government web resources and services.